Location: Stara Lesna
(49.1528°N, 20.2911°E)
Time: 01:34:22
(UTC+02:00)

deb Chang Zheng 4 - Pass Details

Date: 21 September 2019
Orbit: 607 x 628 km, 98.5° (Epoch: 19 October)

Event Time Altitude Azimuth Distance (km) Brightness Sun altitude
Rises 03:34:38 0° 11° (N) 2,931 7.7 -26.5°
Reaches altitude 10° 03:36:51 10° 8° (N) 2,019 6.7 -26.2°
Enters shadow 03:40:10 46° 341° (NNW) 850 4.3 -25.8°
